Time+03,TemperatureF,Dew PointF,Humidity,Sea Level PressureIn,VisibilityMPH,Wind Direction,Wind SpeedMPH,Gust SpeedMPH,PrecipitationIn,Events,Conditions,WindDirDegrees,DateUTC
12:00 AM,78.8,42.8,28,29.95,-9999.0,NNW,5.8,-,N/A,,Clear,330,2013-04-26 21:00:00
12:30 AM,78.8,44.6,30,29.95,-9999.0,WSW,4.6,-,N/A,,Clear,250,2013-04-26 21:30:00
1:00 AM,78.8,41.0,26,29.95,-9999.0,NW,3.5,-,N/A,,Clear,310,2013-04-26 22:00:00
1:30 AM,77.0,42.8,29,29.95,6.2,NW,5.8,-,N/A,Rain,Light Rain,320,2013-04-26 22:30:00
2:00 AM,77.0,44.6,32,29.95,6.2,NW,4.6,-,N/A,,Mostly Cloudy,320,2013-04-26 23:00:00
2:30 AM,77.0,41.0,28,29.95,6.2,NW,5.8,-,N/A,,Mostly Cloudy,310,2013-04-26 23:30:00
3:00 AM,77,43,19,29.96,7,WNW,5.8,,,,Partly Cloudy,300,2013-04-27 00:00:00
3:00 AM,77.0,42.8,29,29.95,6.2,WNW,5.8,-,N/A,,Mostly Cloudy,300,2013-04-27 00:00:00
3:30 AM,77.0,53.6,44,29.95,6.2,NW,4.6,-,N/A,,Mostly Cloudy,310,2013-04-27 00:30:00
4:00 AM,75.2,55.4,50,29.95,-9999.0,NW,8.1,-,N/A,,Clear,310,2013-04-27 01:00:00
4:30 AM,75.2,55.4,50,29.95,-9999.0,NW,10.4,-,N/A,,Clear,320,2013-04-27 01:30:00
5:00 AM,75.2,59.0,57,29.95,-9999.0,NW,8.1,-,N/A,,Clear,310,2013-04-27 02:00:00
5:30 AM,75.2,59.0,57,29.98,-9999.0,WNW,5.8,-,N/A,,Clear,300,2013-04-27 02:30:00
6:00 AM,75.2,59.0,57,29.98,6.2,WNW,5.8,-,N/A,Rain,Light Rain,290,2013-04-27 03:00:00
6:30 AM,75.2,60.8,61,29.98,6.2,West,4.6,-,N/A,Rain,Light Rain,270,2013-04-27 03:30:00
7:00 AM,73.4,62.6,69,29.98,6.2,Variable,2.3,-,N/A,Rain,Light Rain,0,2013-04-27 04:00:00
7:30 AM,73.4,62.6,69,29.98,6.2,Variable,2.3,-,N/A,Rain,Light Rain,0,2013-04-27 04:30:00
8:00 AM,75.2,57.2,53,30.01,6.2,Variable,3.5,-,N/A,Rain,Light Rain,0,2013-04-27 05:00:00
8:30 AM,75.2,57.2,53,30.01,6.2,WSW,4.6,-,N/A,Rain,Light Rain,250,2013-04-27 05:30:00
9:00 AM,77,53,32,30.04,9,SW,4.6,,,Rain,Light Rain,220,2013-04-27 06:00:00
9:00 AM,77.0,53.6,44,30.04,-9999.0,SW,4.6,-,N/A,,Clear,220,2013-04-27 06:00:00
9:30 AM,78.8,51.8,39,30.04,-9999.0,SSW,5.8,-,N/A,,Clear,200,2013-04-27 06:30:00
10:00 AM,78.8,50.0,36,30.04,-9999.0,SSW,3.5,-,N/A,,Clear,200,2013-04-27 07:00:00
11:00 AM,75.2,57.2,53,30.04,6.2,South,11.5,-,N/A,,Overcast,180,2013-04-27 08:00:00
12:00 PM,75.2,55.4,50,30.01,6.2,South,8.1,-,N/A,Rain,Light Rain,190,2013-04-27 09:00:00
1:00 PM,71.6,59.0,64,30.01,6.2,SE,5.8,-,N/A,Rain,Light Rain,140,2013-04-27 10:00:00
2:00 PM,73.4,59.0,61,29.98,6.2,South,6.9,-,N/A,,Mostly Cloudy,190,2013-04-27 11:00:00
2:30 PM,75.2,59.0,57,29.98,-9999.0,South,6.9,-,N/A,,Clear,190,2013-04-27 11:30:00
3:00 PM,74,59,51,29.98,6,SSW,6.9,,,,Partly Cloudy,210,2013-04-27 12:00:00
3:00 PM,75.2,59.0,57,29.98,-9999.0,SSW,6.9,-,N/A,,Clear,210,2013-04-27 12:00:00
3:30 PM,75.2,57.2,53,29.98,-9999.0,SSW,4.6,-,N/A,,Clear,200,2013-04-27 12:30:00
4:00 PM,75.2,59.0,57,29.95,-9999.0,South,5.8,-,N/A,,Clear,180,2013-04-27 13:00:00
4:30 PM,75.2,57.2,53,29.95,-9999.0,SSW,4.6,-,N/A,,Clear,200,2013-04-27 13:30:00
5:00 PM,75.2,57.2,53,29.95,-9999.0,SSW,5.8,-,N/A,,Clear,200,2013-04-27 14:00:00
5:30 PM,75.2,57.2,53,29.95,-9999.0,South,5.8,-,N/A,,Clear,180,2013-04-27 14:30:00
6:00 PM,73.4,57.2,57,29.95,-9999.0,SSE,5.8,-,N/A,,Clear,160,2013-04-27 15:00:00
6:30 PM,73.4,55.4,53,29.98,-9999.0,South,4.6,-,N/A,,Clear,180,2013-04-27 15:30:00
7:00 PM,73.4,55.4,53,29.98,-9999.0,South,3.5,-,N/A,,Clear,180,2013-04-27 16:00:00
7:30 PM,73.4,53.6,50,29.98,-9999.0,South,3.5,-,N/A,,Clear,190,2013-04-27 16:30:00
8:00 PM,73.4,55.4,53,29.98,-9999.0,Variable,2.3,-,N/A,,Clear,0,2013-04-27 17:00:00
8:30 PM,73.4,55.4,53,29.98,-9999.0,Variable,1.2,-,N/A,,Clear,0,2013-04-27 17:30:00
9:00 PM,73,55,43,29.99,7,,1.2,,,,Partly Cloudy,,2013-04-27 18:00:00
9:00 PM,73.4,55.4,53,29.98,-9999.0,Variable,1.2,-,N/A,,Clear,0,2013-04-27 18:00:00
9:30 PM,73.4,55.4,53,29.98,-9999.0,South,3.5,-,N/A,,Clear,180,2013-04-27 18:30:00
10:00 PM,73.4,53.6,50,29.98,-9999.0,SSW,4.6,-,N/A,,Clear,200,2013-04-27 19:00:00
10:30 PM,73.4,55.4,53,29.98,-9999.0,SSW,3.5,-,N/A,,Clear,200,2013-04-27 19:30:00
11:00 PM,73.4,55.4,53,29.98,-9999.0,Variable,2.3,-,N/A,,Clear,0,2013-04-27 20:00:00